Hourly Data Report for January 19, 2013

BAGOTVILLE A
QUEBEC

48°20'00.000" N
71°00'00.000" W
159.10 m
7060400
71727
YBG

Download Data

Hourly Data (January 2013)
Hourly Data Report for January 19, 2013
TIME
LST
Temp Definition
°C
Dew Point Definition
°C
Rel Hum Definition
%
Precip. Amount Definition
mm

Wind Dir Definition
10's deg

Wind Spd Definition
km/h
Visibility Definition
km
Stn Press Definition
kPa
Hmdx Definition


Wind Chill Definition


Weather Definition


00:00 -21.2 -25.3 69   9 13 24.1 99.90   -30 Snow Showers
01:00 -21.4 -24.6 75   12 11 24.1 99.80   -29 Snow Showers
02:00 -20.4 -23.5 76   11 4 24.1 99.79   -24 Snow Showers
03:00 -19.5 -22.4 78   10 7 16.1 99.72   -25 Snow Showers
04:00 -19.0 -21.9 78   13 7 8.0 99.64   -24 Snow Showers
05:00 -18.3 -21.1 79   11 7 4.8 99.58   -24 Snow Showers
06:00 -17.7 -20.4 79   13 6 1.6 99.56   -22 Snow Showers
07:00 -17.9 -20.6 79   11 6 1.6 99.55   -23 Snow Showers
08:00 -17.3 -20.6 75   11 6 6.4 99.55   -22 Snow Showers
09:00 -16.6 -19.1 81   9 11 4.8 99.55   -24 Snow
10:00 -16.0 -18.4 82   9 9 4.8 99.53   -22 Snow
11:00 -15.0 -16.8 86     0 2.4 99.49     Snow
12:00 -13.0 -16.5 75     0 16.1 99.42     Snow
13:00 -11.9 -15.2 76   27 6 4.8 99.43   -16 Snow
14:00 -12.2 -15.1 79   28 13 4.0 99.45   -19 Snow
15:00 -12.2 -14.6 82   28 9 4.0 99.48   -17 Snow
16:00 -12.0 -14.3 83   28 9 3.2 99.54   -17 Snow
17:00 -13.0 -15.0 85     0 8.0 99.58     Snow
18:00 -12.6 -14.6 85     0 8.0 99.63     Snow
19:00 -15.6 -17.4 86     0 12.9 99.63     Snow
20:00 -12.5 -14.0 89   9 6 8.0 99.58   -16 Snow
21:00 -13.6 -15.2 88   10 11 8.0 99.51   -20 Snow
22:00 -13.0 -14.5 88   10 20 8.0 99.42   -22 Snow
23:00 -12.5 -15.9 76   11 32 8.0 99.30   -23 Snow,Blowing Snow

Notes on Data Quality.

Legend

  • E = Estimated
  • M = Missing
  • NA = Not Available*
  • [empty] = Indicates an unobserved value
Date modified: